Theta_e
332 332 334 334 334 334 332 332 332 335 336 337 336 335 331 334 336 335 339 340 337 338 337 336 335 334 337 334 334 341 332 339 339 338 336 337 339 332 335 336 338 338 337 339 342 339 338 339 337 335 333 334 335 335 336 337 337 337 335 333 332 330 330 332 331 329 328 325 329 331 331 334 334 333 332 334 332 333 332 332 334 333 334 333 334
330 331 331 331 333 333 332 332 332 331 333 336 336 332 331 332 332 336 338 340 340 340 340 340 338 335 334 331 331 335 330 335 332 335 335 335 336 336 337 335 336 337 337 338 337 336 336 337 337 337 335 335 334 336 337 336 337 335 334 332 333 331 329 332 332 330 325 324 324 325 326 331 331 332 332 331 331 334 330 329 331 331 331 333 334
329 327 325 325 333 332 331 332 333 333 333 334 335 333 334 333 335 336 337 338 338 339 340 336 342 341 342 339 341 329 333 336 330 330 332 331 339 337 340 340 335 333 336 336 335 334 335 333 334 340 338 336 336 334 334 334 334 332 332 332 330 330 330 333 333 334 325 327 326 323 319 319 325 328 330 330 332 334 331 329 330 330 330 332 332
323 320 324 326 333 332 331 332 333 333 333 334 334 333 332 331 334 336 336 336 336 336 334 336 337 341 340 346 337 336 329 331 333 335 332 332 333 335 338 340 340 338 335 330 331 336 338 336 334 334 336 338 337 335 334 333 334 332 331 332 331 326 327 329 333 333 330 327 318 320 319 318 315 319 323 328 331 332 329 327 328 329 331 331 330
322 322 324 329 331 330 329 331 333 332 333 333 334 330 331 333 334 334 334 334 334 333 333 336 335 335 342 332 333 332 332 332 329 328 332 331 330 336 336 340 335 334 334 329 327 331 337 336 335 334 336 338 339 335 334 333 333 333 333 332 330 329 326 329 331 332 331 331 325 320 317 315 316 320 322 323 327 329 327 327 328 328 328 328 330
323 324 325 327 332 330 330 331 331 332 332 331 328 327 333 333 334 335 334 333 333 333 332 331 328 329 333 329 326 327 325 327 327 328 328 329 327 334 334 337 336 338 332 331 331 334 337 337 338 332 334 334 338 336 335 333 332 333 334 333 332 331 327 325 327 331 331 330 331 328 325 319 318 320 320 314 325 327 327 328 328 328 329 329 329
324 325 326 327 329 327 327 330 330 331 332 330 329 331 334 333 333 331 330 331 332 330 329 328 327 327 330 330 329 328 327 331 331 336 335 326 333 333 331 336 335 335 334 334 334 333 336 336 337 333 331 333 332 333 333 334 329 329 331 331 334 332 331 326 326 329 330 328 331 330 328 329 328 323 317 318 313 321 328 325 325 330 329 328 329
323 323 324 328 328 323 322 328 330 330 332 332 333 333 331 331 330 328 328 329 329 329 330 328 326 327 328 332 330 329 333 330 336 333 331 331 331 331 335 337 335 334 333 329 332 331 334 333 332 332 335 329 330 331 330 330 330 330 332 333 332 331 329 327 326 328 326 325 329 328 329 330 329 328 326 321 318 313 316 323 325 326 326 328 329
323 323 326 328 323 323 323 325 328 331 332 330 330 330 330 329 330 330 330 330 328 329 330 329 327 328 330 334 333 332 328 330 329 329 331 332 331 331 336 331 333 334 332 335 331 329 330 331 333 333 334 332 327 327 328 329 331 332 333 332 331 331 332 330 329 328 326 327 328 326 326 326 327 326 326 324 320 315 315 317 318 326 326 326 328
323 325 326 322 322 325 326 326 328 330 332 331 330 329 329 329 330 329 330 329 329 329 329 328 330 331 332 333 333 327 329 328 330 330 330 331 332 332 331 332 332 334 333 330 331 329 331 330 331 330 330 327 327 327 328 330 330 329 330 332 332 331 332 332 329 330 330 328 328 327 324 325 324 322 323 323 322 321 315 315 318 318 318 323 327
325 324 321 321 321 324 325 324 326 327 330 330 329 329 329 329 330 330 329 329 330 329 329 329 333 336 333 336 329 328 330 330 328 328 329 332 329 329 331 333 334 330 332 331 330 329 329 330 329 327 330 330 327 327 328 326 330 330 329 329 329 328 328 329 330 329 328 327 328 328 324 324 322 320 321 322 322 319 317 317 319 317 318 318 323
323 320 319 318 321 322 323 323 325 325 328 329 329 329 329 328 329 330 329 329 330 330 330 331 334 334 337 332 329 330 329 329 327 327 327 328 329 330 332 331 329 330 329 330 331 330 329 326 328 330 329 329 327 328 325 324 325 326 327 327 326 328 328 327 326 326 328 327 327 328 327 326 327 325 325 324 322 320 320 316 319 314 314 314 319
323 320 318 318 319 320 320 323 325 326 326 327 328 329 329 328 328 327 328 329 329 331 330 332 334 333 334 331 331 331 330 329 328 329 330 328 330 330 329 328 328 327 328 328 330 332 332 330 328 328 328 329 329 329 325 323 324 324 323 323 324 322 323 324 323 323 323 323 323 323 323 323 325 326 326 324 326 324 324 317 314 315 311 311 313
321 322 321 320 322 321 321 322 324 326 326 327 327 327 327 327 328 327 328 330 330 330 331 331 332 333 333 332 331 330 332 329 330 329 331 330 331 330 330 328 327 325 326 328 328 325 327 327 327 327 326 326 326 326 324 324 324 320 321 321 320 321 323 322 321 322 321 321 322 316 317 320 321 322 323 324 323 324 317 316 314 314 313 310 311
321 322 322 321 322 322 321 322 325 326 326 326 326 326 327 328 328 328 328 329 330 330 331 331 330 332 332 332 330 330 331 330 332 331 331 332 331 329 331 329 325 325 326 328 325 325 326 326 326 325 326 327 327 326 325 323 321 318 319 320 320 320 319 320 320 320 320 320 319 320 319 316 317 317 316 318 322 322 322 319 315 311 312 312 307
320 319 320 321 322 322 322 324 325 325 326 326 327 327 327 327 328 328 328 329 329 330 331 331 331 331 332 331 329 331 328 330 331 329 333 333 330 331 331 329 328 326 326 327 327 324 323 323 324 325 326 326 326 325 323 322 323 321 321 321 319 321 321 320 319 320 320 320 320 320 316 316 317 317 316 317 315 320 324 326 319 313 307 304 307
319 318 318 318 320 321 322 324 324 324 325 325 327 328 328 328 329 329 329 329 329 330 331 332 331 330 330 331 331 330 327 328 328 328 331 333 333 333 329 329 328 326 325 327 324 326 326 323 322 324 323 322 322 323 324 323 322 320 318 318 318 321 320 319 321 319 320 320 320 318 317 317 317 318 319 317 318 317 319 318 316 314 312 312 305
318 317 319 318 320 320 322 324 325 324 325 326 327 330 331 330 329 327 327 327 330 330 331 332 330 329 329 330 331 329 327 329 328 328 329 331 332 331 330 327 326 325 325 325 327 326 324 324 324 324 325 326 326 324 320 322 322 321 321 319 320 322 320 320 319 319 320 320 319 318 318 317 319 318 318 319 318 317 317 312 314 315 315 311 311
317 318 318 320 320 321 320 320 324 326 327 328 328 330 331 330 330 330 328 330 331 331 331 332 331 330 330 329 330 329 327 327 327 328 327 327 328 329 329 327 327 325 324 325 325 324 324 324 324 323 323 323 324 324 323 320 319 320 322 322 321 319 318 317 318 318 320 319 317 318 319 319 320 317 318 316 316 315 317 314 313 317 317 315 312
317 318 319 321 321 322 320 321 321 324 324 324 326 327 328 328 329 329 330 329 329 329 329 330 330 329 329 330 330 329 326 325 326 326 326 325 325 326 327 327 326 325 324 325 324 323 324 322 322 322 323 323 324 324 322 324 323 322 320 320 320 321 319 319 319 320 318 320 316 315 317 317 318 317 316 319 316 315 316 315 315 314 312 316 311
318 319 319 321 322 322 323 324 324 324 324 323 323 326 327 327 327 327 327 327 328 329 330 330 330 328 329 330 329 330 328 326 327 327 326 325 326 324 326 327 325 327 324 324 323 322 321 323 321 321 320 323 323 324 325 324 323 321 322 322 321 317 313 315 316 317 316 317 316 315 315 317 318 317 315 318 314 314 313 316 316 313 312 313 314
319 320 320 321 321 322 322 323 324 322 323 323 324 326 327 327 326 327 326 326 328 328 328 329 329 328 327 329 330 329 330 326 325 326 326 327 327 326 328 325 325 327 324 322 321 324 323 322 320 320 321 321 322 322 324 324 320 322 321 324 323 320 317 319 319 312 316 321 318 313 314 316 317 318 317 312 313 314 311 311 312 314 312 314 313
318 318 319 320 320 321 321 322 323 324 323 324 324 325 325 326 326 326 326 327 327 327 328 328 329 330 329 329 329 328 330 326 325 324 326 324 326 327 326 326 325 326 325 324 323 324 323 322 322 322 320 321 321 323 326 323 322 321 320 322 323 320 320 318 319 317 314 318 318 317 316 317 321 316 319 318 318 315 314 314 313 315 314 313 313
318 319 320 320 320 320 318 318 319 322 323 323 324 325 325 326 326 324 325 325 326 328 328 328 329 329 329 328 327 329 329 327 323 324 326 323 324 325 327 326 325 322 321 326 325 321 323 324 322 321 321 322 322 325 325 322 321 322 322 322 322 322 321 321 320 318 316 317 319 317 316 318 317 317 317 317 316 316 317 313 315 315 314 315 314
316 317 317 318 318 317 318 318 320 322 322 323 324 325 323 325 325 325 327 327 325 324 327 327 328 327 328 328 328 329 329 328 324 324 326 323 324 324 325 325 330 325 322 325 322 323 323 322 324 320 320 321 322 323 323 324 325 325 323 323 322 321 322 322 323 322 323 320 319 319 318 318 318 316 314 318 316 314 315 313 310 312 313 315 316
317 317 317 318 318 319 320 321 321 322 322 322 323 324 323 324 324 326 323 322 323 326 323 322 325 327 327 328 329 329 330 330 329 328 327 325 327 328 324 326 325 322 326 327 323 322 321 320 320 320 320 320 320 322 323 323 324 325 325 324 323 324 323 322 322 323 321 322 321 321 322 318 318 318 318 317 318 316 315 314 312 312 313 314 314
316 316 318 317 317 316 318 322 321 321 321 321 320 322 322 324 324 325 325 325 324 325 324 324 323 323 327 327 328 328 327 324 326 325 321 324 325 324 324 322 324 323 324 325 325 323 325 322 319 320 320 319 321 321 324 326 326 326 325 324 324 325 325 324 324 322 322 323 322 322 321 321 319 319 319 318 316 316 315 313 313 313 313 313 312
315 315 315 316 316 317 319 319 319 320 321 322 322 322 322 324 323 324 325 325 326 324 325 324 323 324 323 324 324 327 327 327 327 324 323 322 322 325 322 321 324 327 323 321 322 323 324 321 323 321 321 322 323 323 325 326 326 326 325 325 325 325 324 324 324 323 323 322 322 322 322 322 322 321 320 319 318 316 315 313 313 313 311 311 310
313 313 313 314 314 315 317 317 318 319 319 320 319 321 324 322 323 323 324 324 326 326 324 324 325 326 324 324 325 326 326 325 324 323 322 321 323 324 326 326 326 326 329 326 327 324 322 320 320 324 325 323 322 321 321 319 321 323 322 322 324 324 324 321 320 321 321 322 323 321 320 321 321 318 310 313 315 315 316 313 312 311 311 312 311
310 310 310 311 312 315 317 317 317 317 318 319 321 320 322 322 322 323 323 324 327 324 325 326 324 325 325 324 325 327 326 326 325 324 323 323 324 327 327 326 325 326 326 325 324 324 324 324 324 323 323 320 322 322 318 310 306 319 323 322 323 323 321 318 318 317 317 320 318 319 319 320 315 310 306 302 302 301 305 309 310 312 311 311 310
308 309 310 310 310 310 311 313 316 316 316 317 319 318 321 322 322 322 320 322 322 322 324 323 322 323 324 324 325 324 325 325 325 325 326 325 325 326 324 326 327 327 324 325 323 323 325 324 323 323 321 321 322 321 309 304 304 303 317 323 323 318 318 319 319 318 316 318 319 320 320 319 314 311 307 301 302 298 294 295 296 298 303 311 311
297 297 298 298 300 300 301 304 308 311 311 313 315 316 313 312 316 318 318 321 322 321 321 320 321 321 322 323 325 324 325 324 325 324 324 325 325 325 324 324 326 326 326 325 323 323 323 323 324 323 323 322 321 314 305 304 301 300 302 315 321 320 320 320 319 320 319 318 318 319 320 322 319 318 314 309 304 298 294 293 293 293 292 293 297
296 297 297 298 298 299 300 299 299 300 303 306 308 309 310 311 312 315 319 320 319 322 318 319 320 321 321 323 322 322 322 323 323 323 325 325 324 324 324 324 324 325 325 323 323 323 322 324 325 324 322 321 321 307 300 297 298 296 297 308 319 320 320 319 318 318 319 319 319 319 320 320 320 319 317 315 312 304 295 294 294 296 295 293 292
296 297 297 297 298 299 299 300 300 302 302 303 302 302 309 311 310 311 312 311 312 313 314 315 318 318 321 320 320 320 321 322 325 323 324 323 323 323 325 325 323 322 322 321 322 321 321 322 324 324 323 321 323 308 297 297 296 296 295 305 320 322 320 320 319 320 321 319 320 318 318 317 318 318 318 317 314 309 304 302 304 305 302 298 294
295 296 296 297 297 298 299 300 300 301 302 301 301 304 303 307 309 310 311 313 311 311 312 312 313 313 313 314 313 312 313 316 322 322 323 324 323 324 322 323 322 321 320 320 320 320 321 321 322 322 322 323 322 303 295 295 295 295 293 299 320 322 321 319 319 318 318 316 318 319 318 318 318 318 319 318 315 310 308 308 306 306 304 305 304
296 296 297 298 298 299 300 300 301 300 300 301 301 302 304 304 304 303 307 310 309 309 310 311 311 311 312 313 313 315 319 320 319 320 319 320 322 322 322 322 321 320 320 321 320 319 318 317 319 321 322 320 311 294 295 295 295 294 293 310 318 320 320 319 318 318 317 318 318 318 316 315 319 318 308 304 308 312 310 308 307 306 305 303 297
297 298 299 299 300 300 302 300 300 300 300 302 303 304 302 302 302 304 302 305 307 306 305 307 307 308 309 311 312 312 313 313 314 317 318 318 319 320 322 321 320 320 319 319 319 318 318 318 319 321 321 320 314 298 294 295 294 293 298 314 318 319 319 318 317 317 317 313 310 312 317 317 314 307 299 299 301 305 311 308 307 306 306 305 301
298 302 302 301 301 303 303 302 300 301 301 303 303 304 302 301 302 301 302 302 304 304 304 304 305 306 307 308 309 309 310 311 312 312 313 315 316 318 319 322 319 319 318 318 319 319 319 319 319 319 320 319 319 304 293 294 293 293 302 315 318 319 319 316 314 314 311 308 304 304 315 315 310 304 293 296 300 309 311 309 307 306 306 304 301
298 299 298 298 300 301 302 301 302 302 303 305 305 307 303 304 303 304 304 304 303 303 304 303 305 305 305 306 308 309 309 310 310 312 313 313 314 315 316 317 318 319 318 319 317 317 317 318 319 319 317 318 320 307 293 293 293 293 299 313 318 318 313 312 312 311 311 307 302 299 300 304 303 296 291 291 294 304 309 309 307 307 305 305 303
296 297 298 298 299 299 299 299 299 299 301 300 300 300 301 302 302 301 303 303 304 305 304 305 304 304 304 304 306 308 309 309 309 311 312 312 313 313 314 315 317 317 315 314 315 314 315 315 317 318 319 319 320 313 298 293 294 294 296 310 316 315 312 312 311 310 309 307 303 300 296 291 291 291 291 291 292 297 306 308 310 307 305 305 305
296 296 297 297 298 298 297 298 299 299 300 300 300 299 299 299 300 300 301 301 302 303 303 304 304 303 303 304 305 306 307 308 308 309 310 310 311 311 313 313 314 314 313 313 315 315 315 314 314 316 318 318 320 318 306 292 294 294 293 297 312 315 314 313 312 309 308 306 303 300 297 291 290 290 291 291 293 294 296 301 299 297 297 299 302
297 297 296 297 297 298 298 298 299 299 299 299 299 299 298 299 299 299 300 301 302 301 301 301 302 303 304 304 304 305 306 307 306 307 307 308 310 311 311 312 311 312 313 313 313 313 311 311 312 314 314 317 317 313 311 293 292 292 293 292 305 314 313 313 311 312 308 305 302 299 297 292 290 291 291 291 292 292 293 295 292 289 289 291 297
296 296 296 296 296 297 297 298 299 299 299 299 299 298 298 298 298 299 300 300 300 301 300 301 301 301 302 303 304 305 305 306 306 306 306 306 307 308 309 309 309 310 311 311 312 311 310 310 311 311 310 313 315 312 303 299 291 291 291 291 292 300 298 313 313 310 310 304 301 297 294 291 290 290 290 291 291 291 292 291 288 288 288 289 294
297 296 295 296 296 297 297 298 299 299 299 299 299 297 297 297 298 300 300 300 300 300 300 300 300 300 300 301 301 302 303 304 304 304 304 304 304 305 306 306 307 308 308 308 308 309 308 308 308 308 308 310 314 312 302 299 293 290 291 292 291 291 295 310 312 310 305 301 297 295 293 289 290 290 290 290 290 291 290 288 288 288 289 291 296
296 295 296 296 296 297 297 297 298 298 299 299 298 297 297 297 299 299 299 299 299 299 300 299 299 300 300 300 301 301 301 302 303 303 302 302 302 304 304 305 305 306 306 306 307 307 307 307 307 306 307 308 312 311 308 297 292 291 292 291 292 294 293 297 312 306 303 301 294 290 289 289 289 289 289 289 289 288 287 288 288 288 293 295 297
296 296 295 296 297 296 296 296 296 297 297 298 298 297 296 297 298 299 298 298 298 298 298 298 298 298 299 299 299 300 300 301 302 302 302 302 301 301 301 302 303 303 304 305 305 305 306 307 308 307 307 308 310 311 307 301 295 294 293 290 290 290 292 294 297 299 293 290 289 289 289 289 290 292 295 295 293 292 288 288 287 290 296 295 297
295 295 295 296 296 295 295 295 295 297 297 297 297 298 298 298 298 298 298 299 298 298 297 297 297 297 298 298 298 298 298 299 300 300 299 300 301 301 301 299 300 300 301 302 303 304 307 307 306 309 308 307 307 309 308 304 304 302 298 295 295 293 291 292 293 292 291 290 290 291 291 291 291 291 292 291 291 290 292 293 292 293 294 297 295
296 296 296 296 296 295 295 295 295 296 297 297 297 297 298 298 298 299 298 298 297 297 296 296 296 297 297 297 297 292 295 297 298 299 299 299 299 300 300 300 300 300 299 300 300 301 304 305 305 306 306 306 305 306 307 307 307 305 303 302 299 298 298 296 294 293 293 293 293 291 292 294 294 295 294 294 293 293 293 292 294 294 296 293 292
295 296 296 295 295 295 295 295 295 296 297 297 297 297 298 298 298 298 297 296 296 295 296 296 296 296 296 297 297 297 297 297 297 297 298 299 299 299 299 300 302 305 304 302 301 302 304 307 308 307 306 305 306 305 307 298 297 297 298 304 301 301 299 297 294 292 294 294 294 294 293 295 294 291 290 292 292 293 291 294 299 297 295 296 294
296 297 296 296 296 295 295 295 296 297 297 297 297 297 298 298 297 297 297 295 295 295 295 295 295 295 295 295 296 296 296 296 296 296 296 297 293 294 295 298 299 296 293 294 295 299 302 302 307 307 307 306 305 305 298 296 295 295 295 295 296 297 295 295 292 291 293 292 291 291 291 292 291 291 291 290 291 291 290 290 288 288 290 291 291
296 296 295 295 295 295 296 295 296 297 297 297 297 297 297 297 297 297 296 295 295 294 294 294 294 294 294 294 294 294 295 295 295 295 295 295 295 296 294 293 293 292 292 292 292 291 287 292 303 305 306 299 299 298 297 298 295 295 296 296 296 292 291 291 291 292 292 291 291 291 291 291 290 292 291 291 290 290 289 288 288 288 290 290 289
Wind_Speed
12 10 11 6 7 11 12 9 8 8 7 9 8 9 3 1 9 8 4 3 5 5 6 5 5 4 3 3 3 2 4 2 2 3 3 3 2 5 5 4 3 3 4 3 1 2 2 1 3 4 2 2 2 1 1 1 2 1 3 2 2 2 2 1 1 1 3 1 0 0 1 2 2 3 2 1 5 5 6 4 3 4 4 3 1
12 8 7 6 8 12 11 8 9 11 9 9 9 11 9 3 4 8 5 3 5 5 5 4 3 4 4 3 3 3 4 2 4 4 4 3 3 4 4 3 4 4 3 3 4 3 4 1 2 2 4 3 3 1 1 1 1 2 2 2 1 2 1 1 1 2 1 1 1 1 0 1 2 1 1 2 3 6 10 5 2 4 3 3 1
10 10 4 8 8 13 10 8 9 11 11 10 11 11 9 9 6 8 5 5 5 5 4 2 2 3 2 2 2 3 3 4 5 4 4 4 3 3 2 2 3 4 4 4 4 4 4 5 3 2 2 2 2 3 2 2 1 3 2 2 2 1 1 1 1 2 2 1 1 1 0 1 1 2 2 2 2 2 8 9 3 1 3 2 3
12 8 12 11 9 12 10 8 10 11 10 9 10 11 8 6 7 8 7 6 5 3 3 2 4 3 2 3 7 5 6 5 4 3 4 3 3 3 2 2 2 1 2 5 4 2 1 3 5 5 4 2 2 2 2 3 3 3 2 1 2 2 1 1 0 2 2 1 1 1 1 0 1 2 2 0 1 0 7 10 7 3 3 1 2
7 10 12 7 11 12 12 9 10 11 10 10 8 6 4 10 10 9 8 7 5 3 3 3 6 6 3 7 5 5 5 3 3 3 2 3 3 2 2 2 3 2 3 4 3 3 2 2 3 4 3 2 0 1 2 3 4 3 4 4 3 2 2 1 1 0 2 0 2 2 1 0 0 2 2 2 4 4 6 9 7 8 3 2 3
13 14 10 9 9 13 12 9 11 11 11 9 10 8 6 8 10 9 7 6 6 6 5 7 5 4 5 6 5 4 3 1 1 2 2 2 3 2 2 2 2 1 4 4 3 3 2 1 0 5 5 4 3 1 2 3 3 2 2 2 2 2 3 2 1 1 3 3 1 2 0 0 1 1 0 2 3 3 5 7 7 7 5 4 1
9 9 6 10 9 13 7 8 9 11 11 13 12 11 11 10 9 8 8 6 5 5 7 8 5 5 5 3 1 1 2 0 2 1 3 5 3 3 3 1 2 3 3 3 3 3 3 2 0 3 5 3 4 2 2 0 3 4 6 3 1 4 2 1 1 1 2 3 1 1 2 2 1 0 2 3 2 3 2 6 7 3 5 5 4
9 9 8 7 7 12 8 4 8 10 12 12 10 10 10 10 9 10 7 6 4 5 5 6 7 5 2 1 2 3 2 3 2 3 3 4 3 3 1 2 2 2 4 5 4 4 3 3 4 4 2 3 4 3 3 4 4 4 4 3 4 5 3 3 2 1 2 2 1 1 1 1 2 2 3 1 2 4 4 7 5 4 4 4 5
9 5 2 7 13 13 11 6 5 9 11 10 9 9 8 11 10 10 8 6 6 6 4 6 7 3 2 2 1 2 5 3 3 2 2 2 3 3 1 2 3 3 3 2 4 6 7 4 3 1 2 0 5 4 5 5 4 3 3 4 4 3 3 3 2 1 3 2 1 1 2 1 1 4 0 3 3 5 4 6 6 2 4 3 3
7 5 9 17 15 10 8 12 5 6 10 11 10 8 8 9 10 12 10 7 4 4 4 5 4 1 2 3 3 4 4 3 3 3 3 2 2 2 3 3 3 2 3 4 4 3 6 6 3 3 3 3 5 7 5 3 3 4 4 4 5 5 3 4 3 2 2 2 1 2 2 1 2 3 3 1 3 3 6 5 6 4 4 3 3
7 10 14 15 14 15 10 6 6 6 8 11 10 8 7 7 7 7 10 8 5 3 5 5 2 2 3 2 5 4 3 3 3 3 3 1 2 2 2 2 2 4 3 3 3 4 5 5 5 3 2 4 4 4 3 4 3 3 4 4 4 4 4 4 4 4 4 3 2 1 3 2 2 2 2 1 2 3 6 4 3 6 7 6 4
10 16 15 14 12 14 13 8 11 11 11 9 9 8 7 7 10 10 11 10 8 7 7 6 4 4 2 4 4 4 3 3 3 3 3 2 2 2 2 3 3 3 3 2 2 3 4 5 4 3 4 3 3 3 4 4 4 4 4 4 4 4 4 4 3 3 3 4 4 3 4 4 3 3 2 3 4 2 3 4 4 7 6 6 8
12 14 12 12 15 12 15 15 14 12 13 13 13 11 10 10 13 15 13 12 11 10 10 8 6 4 4 5 4 4 3 3 3 3 2 3 2 2 3 3 3 3 2 2 1 3 2 3 4 4 3 3 3 2 4 5 4 3 5 4 4 4 4 4 4 4 3 3 3 3 4 3 4 5 5 3 0 3 5 6 5 5 6 5 5
12 12 12 13 12 12 11 13 14 14 14 16 18 17 13 13 13 15 15 13 13 12 11 9 7 6 6 6 5 5 3 4 3 3 2 2 2 2 2 3 4 3 2 2 2 3 3 3 3 3 3 3 3 3 4 4 4 5 5 4 5 4 4 4 4 4 4 4 3 6 4 3 3 4 4 7 5 4 4 4 6 5 6 7 6
8 8 11 11 13 15 10 7 7 9 11 9 8 8 9 10 10 11 10 11 13 13 11 11 8 7 6 6 7 5 4 4 3 3 2 2 2 3 2 4 5 3 3 2 3 3 3 3 3 3 3 3 3 3 4 5 5 5 4 4 4 4 5 5 4 4 4 4 5 3 4 6 6 5 5 4 3 3 3 2 4 6 4 3 6
6 7 9 7 10 11 11 10 9 8 9 10 11 10 10 10 13 15 15 13 12 12 10 10 8 7 6 7 7 5 6 4 3 3 2 2 3 2 3 4 4 4 3 3 3 3 3 4 3 3 3 2 2 3 4 4 4 4 3 3 4 3 4 4 4 3 4 4 4 4 5 5 5 6 4 5 6 5 1 3 2 3 4 6 5
5 8 9 1 3 8 10 11 10 9 6 4 7 7 9 11 11 12 11 10 11 11 10 8 8 7 8 6 6 5 6 5 4 4 3 2 2 2 3 4 5 4 4 3 3 3 3 4 4 3 3 4 4 3 3 3 4 4 4 4 4 4 4 4 4 4 4 4 4 6 5 4 4 4 4 5 5 5 4 3 3 5 6 3 5
10 11 10 6 4 11 8 5 11 12 10 7 8 7 6 5 7 10 10 10 9 9 8 7 8 8 8 7 5 7 5 5 5 4 4 3 2 3 3 5 4 4 3 3 3 3 4 4 3 3 2 2 2 3 4 3 3 3 3 4 4 3 4 3 4 4 4 3 4 5 4 4 4 3 4 5 5 6 3 6 6 7 5 5 3
10 11 10 10 8 9 9 10 7 5 5 6 4 3 4 5 6 6 9 8 8 7 7 6 5 5 6 6 5 6 6 5 5 5 4 3 3 3 3 4 4 4 4 3 3 3 3 3 3 3 3 3 3 3 3 4 4 3 3 3 4 4 4 4 4 4 3 4 5 4 4 3 2 4 3 4 4 4 3 4 6 6 6 4 5
14 13 14 11 9 9 11 10 10 9 7 7 5 6 8 8 10 10 9 9 8 7 7 7 6 5 6 6 6 6 7 6 5 6 5 4 4 3 3 4 4 3 4 3 3 3 3 4 3 3 3 3 2 3 3 3 2 3 3 3 3 3 3 3 2 1 3 4 5 4 3 4 4 3 3 2 2 4 4 5 5 5 4 5 9
12 12 14 12 11 12 10 11 10 10 8 7 1 3 6 8 10 11 11 11 9 8 8 7 6 6 6 6 5 4 5 6 6 6 5 5 4 4 3 3 3 3 4 3 3 3 4 4 4 4 4 3 3 2 2 2 3 4 3 1 1 4 5 3 2 4 4 3 3 4 4 4 4 5 5 2 1 3 3 4 4 6 5 5 6
13 14 13 14 15 14 13 12 10 11 9 10 9 6 5 6 9 8 9 9 9 9 8 9 6 7 7 5 5 4 4 5 6 5 5 4 4 4 4 4 3 3 4 4 4 3 3 4 4 4 4 4 3 3 3 3 3 3 2 2 1 3 4 2 3 5 3 2 4 5 4 3 3 3 3 4 4 5 3 6 6 5 6 6 5
12 11 12 12 12 12 12 13 12 11 11 10 10 9 9 9 9 8 8 8 9 8 9 8 7 7 9 8 7 6 5 6 7 6 5 6 4 4 4 3 3 3 3 3 3 3 3 3 3 3 4 3 3 3 2 4 3 2 1 1 3 3 2 2 0 1 3 3 3 3 3 1 2 2 3 3 3 4 4 7 5 4 5 5 4
11 11 10 11 10 11 12 15 13 9 10 9 7 8 7 7 5 7 8 9 9 8 8 7 8 8 8 8 7 6 6 5 7 5 5 5 4 4 3 4 3 4 4 3 3 4 3 3 3 3 3 3 3 2 2 3 3 2 2 2 1 2 2 1 0 1 4 2 3 4 2 2 1 2 3 1 2 4 2 3 2 3 4 4 4
12 11 11 11 10 10 10 10 11 9 9 7 8 7 5 5 5 4 3 4 7 7 5 5 9 7 8 7 5 6 6 5 6 4 5 5 5 4 3 3 3 4 4 3 4 3 3 3 3 3 4 3 3 3 2 2 2 2 2 3 2 2 1 0 0 4 3 2 2 0 3 2 0 3 1 2 3 4 7 6 5 3 5 4 4
12 11 11 10 9 7 6 7 7 7 6 5 6 5 10 9 5 2 9 8 8 7 3 7 6 6 8 7 7 6 5 4 4 3 3 4 2 1 4 3 4 4 3 3 4 3 3 3 3 3 3 3 3 3 2 2 2 2 1 3 3 2 1 1 1 1 1 1 1 1 2 3 1 0 2 5 5 5 5 5 5 5 5 4 5
11 12 8 8 10 8 3 3 6 5 3 3 3 3 5 9 11 8 6 7 7 7 6 7 5 3 1 6 6 6 8 7 4 4 6 6 1 4 3 4 3 4 3 3 2 3 2 3 5 4 4 4 4 4 2 2 2 2 2 1 1 2 1 1 1 1 1 1 0 0 1 3 1 3 3 3 3 4 4 4 3 3 3 4 5
12 12 12 11 13 10 8 6 6 3 3 6 5 7 3 3 5 8 6 4 5 3 8 10 7 8 5 2 6 3 7 8 5 6 4 8 6 5 4 4 2 2 4 4 3 3 3 3 3 4 4 4 3 2 1 1 0 1 2 1 2 1 1 1 0 0 0 1 0 0 1 0 1 1 2 2 1 3 2 2 2 2 3 4 3
14 12 12 13 12 10 8 6 9 9 6 9 6 6 4 5 3 6 3 4 4 6 5 5 8 5 7 6 5 6 5 6 6 4 5 2 1 3 1 3 1 3 4 3 1 2 3 5 4 1 1 8 11 7 4 4 3 3 3 5 3 1 1 4 7 9 9 6 6 8 9 8 2 6 8 5 4 4 1 2 1 2 2 1 0
15 14 14 14 13 10 9 8 8 9 8 7 3 4 6 6 7 6 5 4 3 1 4 4 6 6 6 7 6 3 5 6 7 7 6 5 5 2 2 1 3 4 3 3 2 3 5 4 1 2 8 7 3 3 7 7 3 3 4 6 2 5 8 6 3 2 5 2 4 1 2 7 5 9 10 9 9 11 10 6 3 2 0 1 2
15 15 15 15 13 12 11 10 9 8 7 5 4 6 6 7 6 6 7 6 8 3 2 4 7 6 4 5 6 4 4 5 4 5 4 4 4 4 4 1 1 1 1 1 2 2 1 2 3 4 6 4 1 2 7 4 7 5 4 4 6 6 5 3 3 4 6 4 2 0 4 4 4 6 7 10 7 10 9 9 9 8 6 3 2
18 18 18 19 19 20 19 17 15 10 9 6 5 7 7 8 6 7 7 6 5 4 4 5 6 5 6 6 5 6 5 4 5 5 5 5 4 4 5 4 3 1 1 1 1 0 0 1 1 4 5 5 4 6 7 6 5 5 5 2 3 4 4 5 4 4 3 2 2 4 4 2 2 2 4 5 5 8 9 9 9 8 8 9 8
17 18 18 18 18 17 17 18 17 17 16 17 15 11 9 7 7 4 7 7 7 4 4 5 4 5 4 3 3 4 5 5 5 4 3 4 4 5 5 4 4 3 2 1 1 1 1 1 0 2 5 5 4 8 9 6 5 2 4 2 2 4 3 3 3 4 4 3 2 2 1 2 2 7 6 5 5 5 6 8 8 8 8 7 8
14 15 15 15 14 13 13 15 15 16 16 15 16 17 9 9 10 9 9 9 7 6 4 4 4 3 3 4 5 5 5 4 2 3 3 3 4 2 3 2 4 3 2 2 2 2 2 3 3 3 4 6 5 9 11 7 4 3 3 3 1 2 3 3 4 5 5 3 2 2 3 5 4 7 6 7 7 6 5 3 3 2 3 4 5
14 14 13 13 13 14 15 16 15 14 14 15 17 15 17 13 9 7 7 4 7 8 6 6 6 5 5 5 6 7 6 3 2 4 3 2 5 6 5 3 5 5 5 4 3 3 3 3 4 4 4 3 3 5 7 7 5 5 5 1 2 3 4 3 4 5 3 5 6 7 8 7 6 7 4 4 7 7 5 4 3 3 3 2 2
11 11 10 10 11 12 11 11 11 13 13 15 14 14 13 12 14 16 10 8 9 9 8 9 9 9 8 8 6 3 2 1 2 2 2 1 4 7 7 7 5 3 3 3 4 4 5 5 5 4 3 3 3 5 8 7 7 7 6 3 4 5 4 4 4 4 5 5 6 7 7 8 8 4 5 6 10 7 6 4 4 3 4 5 4
8 8 8 8 9 9 8 9 9 9 10 9 10 11 12 12 14 12 15 12 13 13 12 10 10 10 9 8 7 7 5 5 5 2 0 0 1 2 3 5 6 8 8 7 6 5 5 5 6 6 4 3 4 7 8 9 8 9 5 4 5 5 4 4 4 6 3 4 3 1 1 7 6 4 5 13 15 11 5 5 4 4 5 5 3
7 5 5 4 4 4 3 5 5 6 7 5 6 6 7 10 10 11 12 13 13 11 12 11 9 9 9 8 8 8 8 7 6 6 6 6 4 3 2 0 2 3 4 5 6 8 9 9 9 8 7 5 4 8 11 7 8 10 8 6 6 5 5 6 4 5 5 5 7 11 7 7 7 5 6 9 6 5 5 5 4 4 5 5 4
6 6 7 6 2 3 4 4 3 2 1 3 3 2 6 6 6 7 7 7 8 8 10 10 9 9 9 9 7 6 6 6 7 7 7 7 5 5 4 3 3 2 3 3 4 4 4 4 4 4 6 5 3 7 11 10 10 10 8 5 5 6 5 6 6 6 5 5 6 8 10 9 8 7 10 9 10 6 3 3 5 5 5 5 6
7 5 4 5 4 5 5 4 5 4 3 4 5 6 6 6 6 6 6 5 6 5 5 5 6 7 8 8 6 5 5 5 5 5 5 5 5 5 5 5 3 2 3 4 3 4 6 6 6 5 6 6 5 5 9 12 11 12 13 6 5 4 4 6 7 8 6 4 5 5 7 9 11 11 11 12 11 9 4 3 2 4 3 2 6
7 6 5 4 5 5 6 5 5 5 5 5 5 5 5 5 5 5 6 8 8 8 9 8 7 8 8 8 7 6 6 5 5 5 5 5 5 6 6 6 4 4 4 5 3 3 3 6 7 7 7 7 5 6 9 14 13 12 10 8 4 4 3 3 1 7 7 6 5 4 4 5 11 11 12 12 13 13 10 7 8 6 3 1 4
7 7 6 4 3 6 6 5 5 6 6 6 7 5 4 6 5 6 8 7 8 8 8 7 8 8 8 8 8 7 7 6 6 6 5 5 4 5 5 6 5 4 4 5 4 3 5 5 5 6 6 7 8 12 6 10 10 9 9 8 5 3 3 4 3 2 5 7 7 6 5 6 11 12 12 13 13 13 11 8 7 7 9 12 4
5 6 8 5 4 6 5 5 5 6 6 6 6 6 6 6 5 7 7 7 7 7 7 8 8 9 8 8 7 8 7 6 6 6 7 6 5 5 6 6 7 7 7 6 5 4 4 4 4 6 6 5 6 6 11 9 9 9 10 10 10 6 2 1 8 6 3 7 6 8 6 8 11 11 11 12 13 13 10 6 8 8 7 3 1
6 8 8 7 6 6 5 6 6 6 6 6 6 5 6 6 6 6 5 5 6 6 7 7 6 7 8 9 9 9 8 7 7 7 7 7 7 7 7 6 6 6 6 6 6 5 5 5 4 4 5 5 6 5 7 11 9 11 11 12 11 7 1 1 3 7 8 9 9 8 9 12 12 11 11 11 10 9 7 7 7 6 4 2 0
6 6 7 6 6 5 5 6 6 6 5 4 4 4 5 5 5 5 7 7 7 7 7 7 7 8 7 8 8 8 9 9 9 8 8 8 8 7 7 6 6 7 7 7 5 5 5 5 4 4 4 4 6 6 5 6 10 10 10 9 6 6 3 3 2 9 10 9 12 15 15 13 13 14 13 12 9 8 6 5 7 7 4 1 1
5 6 5 4 4 4 6 5 5 7 7 7 7 8 8 8 8 7 7 8 8 8 8 9 9 8 8 10 9 9 8 8 9 8 9 8 8 8 8 7 7 7 7 8 7 7 7 5 3 3 4 4 2 5 5 4 4 5 4 5 7 9 11 12 11 11 15 19 18 16 16 16 14 11 7 5 4 4 4 6 4 3 1 2 2
6 5 2 2 4 5 7 6 6 6 5 5 6 6 6 7 7 8 8 8 9 8 8 8 9 9 9 9 10 8 7 8 8 8 8 8 8 7 8 8 8 8 8 8 7 7 5 3 2 1 4 6 8 5 5 3 1 2 3 5 8 9 13 15 13 11 13 11 14 12 10 10 8 9 11 10 7 5 2 0 1 2 3 1 5
4 3 1 5 6 6 5 4 4 5 5 5 5 6 7 8 8 9 9 9 9 8 9 10 10 9 8 9 9 11 11 7 7 8 7 7 7 8 9 8 7 7 7 7 7 8 7 8 8 7 5 2 4 5 2 3 2 1 1 3 5 7 6 8 10 9 10 10 10 10 11 8 7 7 6 4 4 2 2 2 3 4 3 5 4
5 5 5 5 5 4 4 4 4 4 4 4 6 7 8 8 9 9 9 10 9 9 9 10 10 9 9 8 9 9 8 9 10 9 9 9 9 9 8 9 9 4 4 4 5 7 9 7 4 6 7 7 8 7 3 2 2 3 2 1 3 4 7 5 10 14 11 8 8 7 7 6 5 5 4 4 4 4 4 5 3 1 1 4 5
4 4 5 5 4 3 3 4 3 4 4 6 7 7 7 7 8 9 9 9 8 8 8 8 7 7 8 8 8 9 10 10 10 9 10 10 12 12 9 10 10 13 8 3 4 7 5 5 6 7 5 8 9 9 11 5 5 9 6 7 5 8 12 12 14 16 13 8 6 6 5 5 5 4 4 4 4 4 5 4 3 2 2 5 4
2 3 5 4 3 3 3 3 3 4 5 6 6 6 7 8 8 8 8 8 8 7 7 6 7 7 7 7 8 9 9 10 10 10 11 11 10 12 16 17 16 16 15 17 12 5 3 3 2 4 2 4 6 11 15 13 11 11 13 9 0 2 14 16 16 10 6 7 6 6 5 5 4 4 4 5 5 6 5 5 5 1 1 4 2
Wind_Direction
167 185 150 141 150 123 135 151 155 131 148 154 144 109 82 185 122 111 105 125 133 117 118 120 131 130 132 133 105 135 104 113 88 74 77 57 101 128 120 114 112 120 133 115 113 128 83 146 159 127 160 191 201 232 154 160 162 141 96 113 130 129 102 108 151 88 64 51 83 241 72 72 340 44 13 55 149 115 65 41 16 49 46 30 17
167 161 117 194 164 132 135 151 138 138 158 147 131 114 148 132 78 103 104 107 91 80 90 115 119 144 141 134 151 133 113 146 95 82 71 80 71 69 79 104 129 121 114 117 114 109 123 42 47 162 170 176 185 192 152 166 161 93 96 105 44 56 91 166 127 127 22 65 138 147 129 155 87 102 98 46 54 96 121 122 40 113 118 125 57
148 65 89 250 187 134 136 156 135 129 145 147 132 135 140 129 148 104 131 101 82 69 56 25 6 79 33 101 131 134 102 93 100 110 128 105 74 90 98 130 127 131 143 158 143 132 144 142 184 196 212 148 145 169 192 147 123 107 88 80 95 80 78 318 183 201 132 162 51 328 36 32 155 136 134 84 91 111 117 131 146 180 119 124 131
106 149 203 208 172 138 141 143 121 128 140 146 144 137 128 127 118 114 98 98 102 66 52 21 28 14 30 4 37 52 80 70 91 90 84 138 137 102 67 7 54 92 145 123 98 92 117 142 145 127 267 129 189 162 159 129 123 120 119 177 130 133 176 195 42 47 68 108 157 156 67 208 221 136 120 143 137 105 105 109 122 71 6 45 99
121 201 218 178 165 147 141 137 118 131 140 142 117 81 120 128 118 115 112 105 91 73 48 40 36 14 43 62 51 59 61 75 90 121 136 85 101 104 112 143 99 49 56 71 86 108 106 83 115 112 96 319 330 89 168 152 158 153 151 143 155 138 122 94 118 133 102 117 140 87 109 331 322 108 135 74 62 35 55 79 113 127 127 320 53
179 208 193 167 164 129 133 125 126 134 134 99 88 118 140 113 122 110 104 102 92 87 86 79 61 22 42 58 52 37 53 58 130 93 116 181 100 103 138 79 68 115 73 59 66 94 96 88 11 129 141 167 168 197 58 37 77 111 109 107 116 135 128 104 69 177 152 188 137 130 155 64 66 88 102 64 25 44 67 96 85 98 144 111 46
207 229 148 168 168 116 91 114 116 132 115 111 135 147 130 131 123 108 103 99 111 133 133 105 93 47 15 65 75 118 166 279 73 54 71 75 79 74 73 69 113 69 82 95 100 86 51 76 0 122 149 132 102 88 119 164 113 130 125 137 149 89 95 145 146 89 83 1 262 124 158 176 272 40 87 122 41 57 66 89 99 105 100 122 114
202 220 186 159 140 100 106 70 102 121 119 120 129 126 124 133 121 109 102 106 140 138 102 128 99 63 336 290 195 219 141 100 83 60 66 66 71 115 140 158 130 155 163 154 122 95 124 65 38 8 55 131 143 115 86 38 48 55 46 88 122 126 131 109 115 131 154 185 146 197 189 174 253 351 6 48 156 138 93 78 98 145 114 92 96
213 211 176 93 69 109 140 125 104 110 114 115 121 120 116 114 116 117 116 134 163 124 133 98 98 105 258 242 264 92 101 90 87 96 81 95 134 216 177 96 60 35 36 51 130 142 91 78 80 8 352 86 127 105 81 80 73 76 82 77 90 98 95 106 108 112 103 91 266 120 273 60 76 111 119 122 247 113 86 93 96 47 89 78 100
219 214 70 78 81 93 123 133 117 101 108 112 117 125 126 127 137 132 131 137 121 102 102 95 82 107 227 247 135 126 110 124 135 112 113 184 179 72 70 68 93 75 32 29 10 59 126 134 86 42 20 28 69 91 106 93 84 80 71 69 72 73 68 90 82 68 86 96 124 107 119 86 79 79 31 295 13 53 124 140 142 144 114 123 133
187 84 91 98 115 110 92 61 100 91 113 130 136 142 145 143 144 130 133 123 119 145 140 137 164 202 210 183 140 126 123 128 110 134 157 177 118 138 138 140 102 77 76 32 25 28 33 58 100 109 48 20 59 89 92 100 96 107 103 88 86 92 95 95 116 102 107 130 137 162 93 95 119 109 179 147 98 103 119 139 164 129 135 140 175
100 106 99 106 104 104 112 153 171 152 138 143 142 147 154 155 148 137 134 139 154 168 154 172 195 182 204 156 135 129 142 133 146 173 175 159 153 177 122 105 91 95 70 48 55 59 52 74 63 52 46 40 42 62 105 113 107 76 68 84 81 81 84 71 67 103 141 160 163 164 137 140 155 139 138 95 131 157 102 138 157 132 127 131 157
92 107 117 118 122 124 145 163 160 153 153 156 153 154 166 165 161 149 154 156 167 169 171 183 181 167 176 148 138 139 152 152 168 172 200 152 175 133 132 119 123 115 107 125 125 88 68 69 81 65 45 37 40 46 92 94 82 93 98 78 81 85 72 74 65 51 41 45 68 59 110 137 154 150 130 110 137 142 149 174 133 124 128 139 145
111 124 130 139 142 157 171 165 162 161 169 165 163 163 167 168 169 158 161 166 169 168 174 175 178 173 158 151 147 143 162 162 170 178 186 144 185 133 153 138 127 102 116 105 100 96 85 71 74 99 108 90 71 43 37 69 90 81 62 76 77 64 60 66 73 55 37 36 55 75 49 42 41 86 104 154 173 168 145 147 136 140 161 143 140
106 122 125 129 139 152 154 142 173 146 157 153 158 155 151 166 169 158 157 171 169 172 170 170 167 174 160 150 146 152 156 160 173 161 165 157 133 175 159 123 116 134 121 106 97 104 112 104 93 79 79 113 106 64 63 71 78 88 102 102 92 104 103 81 63 61 46 36 43 70 67 42 24 27 67 12 125 146 165 141 135 150 179 133 108
128 125 114 130 130 131 136 148 148 146 158 156 156 161 161 172 174 170 169 168 170 168 169 162 164 162 152 146 153 159 147 157 158 144 159 138 161 183 133 120 121 114 113 125 110 102 113 126 128 124 127 109 100 93 84 74 70 72 70 68 74 69 81 92 89 71 54 39 40 58 62 49 34 22 27 29 32 341 103 51 330 113 107 123 109
118 100 81 18 95 125 135 134 135 147 164 153 147 160 172 172 171 161 155 155 164 167 160 162 157 153 154 155 154 152 158 162 157 156 142 166 169 147 126 120 112 117 135 134 136 152 113 92 91 89 75 74 90 111 108 106 105 100 97 88 82 82 87 82 80 78 57 43 55 58 59 47 68 38 20 27 358 2 40 56 33 84 70 72 130
121 122 135 193 203 142 116 101 143 150 160 162 161 169 174 168 160 146 150 152 157 159 154 156 158 157 155 159 154 155 169 157 148 148 148 156 145 126 120 117 129 139 145 147 140 121 114 109 111 117 133 126 96 94 105 106 107 106 101 113 123 112 92 91 95 90 77 67 69 86 82 86 53 53 46 21 18 1 11 45 41 46 54 39 107
136 143 160 176 164 147 143 143 142 106 122 127 124 128 142 151 150 149 149 152 151 152 145 149 161 150 151 162 172 159 163 151 142 144 148 152 161 148 134 137 135 144 147 134 133 127 131 129 124 112 93 96 98 94 93 92 105 117 112 93 93 100 105 94 91 98 96 81 62 54 49 51 80 90 82 63 22 6 1 81 55 62 44 44 87
146 160 154 149 145 145 144 150 145 152 146 114 159 175 161 158 154 155 159 157 151 142 146 157 170 157 162 175 170 165 155 153 148 149 154 156 165 136 138 135 145 159 136 156 150 150 137 142 132 130 130 130 133 99 106 134 120 101 110 127 150 143 108 87 93 117 124 108 90 73 59 36 17 64 57 75 95 30 24 41 74 77 54 60 89
152 146 140 141 143 136 133 126 126 124 125 123 358 185 158 163 163 159 155 155 155 153 153 164 176 166 163 161 173 159 156 149 152 150 152 159 147 144 141 143 149 170 144 168 164 160 164 160 150 151 147 136 119 126 103 86 69 66 63 87 101 101 101 101 120 82 49 46 83 99 60 30 23 42 1 308 139 140 94 71 70 76 44 33 96
135 133 136 141 141 139 140 131 122 120 130 150 173 152 159 174 153 148 150 158 155 159 165 169 180 162 160 167 173 161 181 148 149 154 152 140 127 132 145 136 176 158 161 182 169 173 164 173 161 154 137 147 143 143 155 108 84 78 54 19 18 54 62 52 54 81 72 73 56 75 73 42 9 29 1 13 33 347 82 62 46 44 40 30 52
132 129 131 130 138 138 138 133 130 131 142 150 151 158 162 167 159 150 155 164 163 166 170 172 170 168 163 172 174 172 178 151 150 158 154 138 139 143 155 161 171 164 185 194 165 165 183 170 169 148 154 143 151 135 129 111 116 141 121 37 34 80 86 80 21 124 120 81 84 98 88 55 49 10 10 14 17 5 42 65 65 64 71 38 28
134 142 130 132 139 139 139 134 127 138 138 140 137 143 144 143 162 169 166 172 172 171 166 172 163 171 165 167 164 180 169 155 153 160 150 146 154 155 165 163 195 150 203 208 151 174 189 182 168 158 150 154 130 139 132 141 143 158 144 123 101 81 110 203 161 271 110 131 92 82 94 84 33 46 20 8 30 4 62 112 80 111 104 104 44
117 117 120 125 126 125 127 124 126 133 131 136 151 146 138 136 143 172 126 70 45 13 328 183 164 162 162 159 163 164 161 167 146 157 138 147 156 162 160 176 197 169 186 201 146 189 182 197 169 172 161 163 144 150 160 128 150 124 170 161 159 172 167 151 286 62 19 77 102 132 129 100 62 86 297 338 69 56 34 45 34 31 83 47 73
114 112 110 109 93 81 96 110 112 115 123 127 141 169 149 136 99 118 131 148 164 162 123 320 308 167 151 157 160 151 141 128 101 90 66 114 135 192 161 198 194 179 194 191 149 197 181 194 174 207 165 165 155 153 154 164 151 184 193 156 202 156 181 207 118 100 125 32 73 346 83 123 115 44 17 41 33 52 53 50 39 33 42 44 33
109 111 110 103 107 107 35 38 98 111 110 115 134 115 132 134 157 167 147 151 155 149 165 191 199 274 241 154 150 124 93 65 57 85 100 359 287 218 179 200 195 175 168 182 147 201 197 225 183 208 178 169 170 165 168 160 151 194 230 143 241 169 161 265 143 169 205 116 96 7 34 57 62 67 43 50 73 62 60 57 35 44 54 48 44
100 98 102 108 115 124 136 136 95 16 149 169 172 135 147 83 131 135 125 98 113 154 188 177 189 168 198 88 71 80 119 135 139 124 148 155 218 245 183 202 192 187 167 174 186 214 198 226 232 199 206 180 157 102 46 89 32 345 315 267 192 195 219 199 174 253 112 91 134 320 78 62 68 92 121 114 45 83 64 68 65 72 63 56 23
82 82 82 87 87 81 80 77 101 109 67 59 40 51 85 130 65 59 86 149 170 173 189 175 161 144 133 137 142 144 145 136 137 143 164 177 227 271 28 353 248 137 39 20 347 253 226 202 243 336 26 53 52 58 36 308 316 249 250 257 255 303 286 0 355 8 8 359 19 31 10 345 308 92 68 70 91 74 125 116 69 54 48 52 306
76 70 65 60 72 94 102 89 68 72 64 67 79 109 124 126 152 169 138 112 116 224 152 132 92 72 75 102 111 112 132 141 158 158 164 178 201 191 58 2 353 40 72 80 45 5 11 348 335 32 67 86 120 172 207 208 43 295 233 242 225 36 38 57 76 285 283 358 25 353 229 254 274 126 102 86 83 76 65 66 36 20 44 215 237
79 74 71 69 64 56 56 79 106 107 116 114 95 92 71 72 46 67 89 106 114 125 69 59 92 96 88 100 141 160 165 162 150 140 149 168 176 147 149 155 48 42 30 54 57 352 1 73 46 77 107 110 149 236 222 169 272 311 359 25 83 122 153 120 134 205 239 217 118 290 272 278 234 135 121 120 112 96 90 83 72 69 58 51 349
40 38 34 31 29 28 23 16 22 42 75 99 96 88 67 55 79 97 85 75 37 52 72 65 82 121 138 142 146 147 148 149 164 162 170 171 165 159 145 174 156 136 126 63 264 283 47 55 89 110 129 160 181 227 234 230 264 303 49 34 88 113 141 145 155 178 243 268 151 198 239 234 228 217 136 123 101 91 94 90 83 75 69 59 61
46 42 39 37 34 32 30 24 20 13 15 25 26 34 34 40 50 32 113 136 113 73 69 86 74 73 62 67 72 92 126 150 138 150 167 168 161 165 157 162 152 159 150 180 295 320 293 287 167 159 150 175 190 202 213 222 251 328 64 102 132 130 147 170 172 172 181 204 206 191 153 70 284 234 160 155 143 107 81 96 108 92 65 80 86
49 44 41 33 28 26 24 23 20 19 18 19 20 0 1 50 23 35 41 37 50 72 68 100 115 106 139 150 143 147 140 121 114 125 158 162 126 129 117 125 130 128 179 213 227 249 260 251 239 223 179 177 190 190 190 193 197 140 120 93 221 141 151 164 163 172 176 149 144 177 151 214 227 209 183 171 155 137 136 130 149 147 117 82 81
51 45 41 37 33 26 21 21 18 13 14 15 7 12 2 16 21 23 35 61 79 54 48 22 23 32 35 33 62 39 33 42 104 132 149 166 142 141 152 146 155 169 187 196 205 232 241 249 248 229 218 179 183 171 162 174 164 131 125 119 219 178 176 176 178 178 188 157 181 193 202 201 199 206 179 188 138 143 143 153 163 161 128 160 86
51 51 42 40 40 33 24 19 13 16 15 12 10 4 6 9 15 4 359 46 38 53 36 17 23 14 15 12 15 37 65 80 84 51 2 282 146 163 165 173 179 215 222 188 188 225 236 234 240 242 224 159 181 188 180 186 165 139 139 198 211 211 196 180 196 183 180 192 193 197 209 209 194 170 164 149 131 137 146 162 162 177 126 78 63
64 66 61 48 44 42 29 23 17 25 14 9 12 4 6 4 9 8 356 19 34 19 14 21 13 7 358 5 4 8 20 354 9 351 329 18 335 121 175 165 179 183 192 198 201 214 252 273 269 257 240 203 159 208 206 201 165 158 153 216 214 218 204 200 204 213 149 99 75 78 211 146 117 103 118 126 138 145 145 156 163 159 125 117 125
69 75 83 85 94 91 59 69 41 19 6 349 1 2 8 5 1 7 360 11 24 8 355 7 359 1 352 358 2 360 4 356 354 349 358 354 356 356 338 175 205 194 188 181 182 186 197 211 221 223 218 225 172 190 199 194 168 177 193 205 214 213 221 196 183 112 96 79 50 41 75 109 108 100 88 97 127 145 148 161 155 144 150 145 163
104 97 86 77 99 149 165 165 139 84 252 291 332 11 355 354 354 347 352 350 32 4 348 347 349 348 346 340 345 350 358 353 341 354 349 346 343 336 316 305 276 235 239 193 182 191 187 190 203 205 190 200 190 176 187 184 187 181 206 233 223 225 213 154 134 110 98 83 62 45 55 83 102 101 83 74 55 45 35 168 157 168 182 184 159
104 78 99 138 139 99 77 42 42 33 41 14 8 8 5 351 355 352 331 349 9 1 332 338 342 337 329 324 328 344 355 350 333 334 337 330 329 322 316 307 295 281 250 230 189 203 188 188 187 188 168 195 191 165 183 187 191 190 197 212 235 254 222 157 148 131 124 112 101 84 60 74 96 92 89 80 66 64 61 0 185 180 176 107 127
84 69 31 51 78 69 63 47 45 21 27 21 31 19 354 360 351 335 0 5 354 346 347 345 336 324 316 318 332 337 335 332 324 323 321 318 316 312 314 313 302 291 298 291 237 225 224 185 193 181 171 188 192 180 181 184 191 191 183 196 225 258 246 168 150 141 133 138 121 89 85 73 89 88 85 80 77 72 70 70 69 75 90 122 90
99 91 52 29 75 81 60 51 50 33 29 22 12 13 7 8 359 3 3 352 354 345 331 328 322 323 327 328 325 327 326 319 306 294 290 283 287 293 295 300 301 289 265 267 275 224 237 221 194 171 165 185 186 179 167 182 186 181 173 186 217 222 77 155 161 205 150 135 126 130 118 96 97 98 95 91 89 87 85 84 79 79 56 51 43
56 62 45 10 47 57 52 46 46 40 30 23 15 15 19 11 355 351 358 346 338 328 326 330 332 328 325 318 311 307 304 301 302 301 296 290 285 282 279 286 289 289 283 271 268 266 264 263 197 179 176 158 136 155 166 169 182 179 178 185 212 254 37 151 165 166 102 119 114 118 115 118 105 101 98 101 103 100 90 104 110 88 83 70 353
51 49 28 6 35 32 33 39 34 27 22 20 16 18 14 353 342 348 331 321 319 326 324 320 319 319 317 318 317 314 308 308 299 296 288 280 273 266 267 265 265 266 271 264 256 258 253 256 239 209 188 160 146 137 166 167 171 182 181 192 193 193 152 113 161 151 147 130 132 132 133 128 110 101 92 86 86 92 111 114 101 85 59 75 300
57 43 23 12 36 27 36 30 26 14 22 22 12 357 345 333 348 340 336 333 331 328 325 324 318 317 317 311 313 313 315 315 313 307 301 298 294 287 274 265 264 264 261 264 264 258 257 246 248 235 208 181 152 150 143 154 167 173 179 175 157 137 103 162 125 131 139 140 128 127 126 118 109 102 97 89 80 75 73 71 59 40 22 331 304
79 61 22 18 41 52 38 32 21 29 21 17 8 3 357 359 349 343 331 324 324 329 329 322 319 319 321 320 318 318 310 307 310 314 310 302 295 296 296 294 279 267 263 260 256 255 257 266 294 315 308 277 193 143 134 125 145 137 113 96 101 99 84 74 88 107 115 120 124 125 122 117 114 116 114 107 106 98 63 42 25 4 310 277 273
86 68 24 68 68 50 41 26 30 29 24 12 5 358 346 340 340 335 333 329 331 326 323 325 326 324 322 317 309 303 318 317 306 297 299 303 305 295 285 276 276 281 286 279 268 254 233 203 188 273 43 14 346 7 52 78 156 166 137 131 105 91 99 98 97 106 109 114 123 126 128 120 111 108 105 102 104 106 94 37 230 205 245 304 58
90 84 347 66 54 52 45 35 33 36 18 10 357 353 347 347 341 337 333 332 324 330 325 317 315 316 311 309 311 318 310 298 302 306 298 285 280 292 297 294 289 284 275 278 284 276 249 223 222 197 170 134 312 302 310 80 36 313 243 146 127 129 124 127 120 122 126 124 122 114 107 106 113 108 113 115 122 143 190 179 216 214 204 100 102
77 83 78 68 56 50 37 28 44 37 2 355 356 2 358 353 347 345 339 329 324 323 319 312 312 311 311 318 316 313 317 323 321 314 315 314 315 306 291 288 296 346 42 3 351 345 343 326 254 201 195 197 194 165 211 171 158 104 320 289 96 100 120 119 132 128 119 121 120 122 123 124 129 131 133 147 156 177 208 207 188 39 88 149 146
83 88 80 75 72 55 44 32 33 14 352 5 7 4 358 359 355 346 341 331 326 320 312 311 308 308 309 318 317 318 317 315 314 313 313 312 310 310 312 309 296 292 283 280 302 291 277 319 349 321 285 220 201 187 147 98 90 96 55 336 253 175 149 138 145 142 135 134 139 130 136 133 141 145 165 166 175 185 170 112 70 61 7 48 55
96 79 66 62 56 40 41 34 22 356 1 8 2 354 1 358 357 348 341 333 326 322 315 310 314 314 332 338 321 311 314 313 316 318 314 309 310 316 319 313 305 297 298 299 301 253 242 236 230 256 229 222 203 166 155 169 169 155 176 168 13 15 124 134 141 131 121 133 138 137 141 143 151 163 178 193 173 151 147 137 135 176 238 109 101